Time,TemperatureF,DewpointF,PressureIn,WindDirection,WindDirectionDegrees,WindSpeedMPH,WindSpeedGustMPH,Humidity,HourlyPrecipIn,Conditions,Clouds,dailyrainin,SoftwareType,DateUTC
2013-03-02 00:00:00,56.1,37.8,30.06,South,180,8.0,11.0,50,0.00,,,0.00,meteohub,2013-03-02 05:00:00,
2013-03-02 00:01:00,56.1,37.8,30.06,South,180,8.0,11.0,50,0.00,,,0.00,meteohub,2013-03-02 05:01:00,
2013-03-02 00:02:00,56.1,37.8,30.06,South,180,8.0,11.0,50,0.00,,,0.00,meteohub,2013-03-02 05:02:00,
2013-03-02 00:07:00,56.1,37.8,30.06,SW,225,10.0,11.0,50,0.00,,,0.00,meteohub,2013-03-02 05:07:00,
2013-03-02 00:12:00,56.3,38.8,30.06,SW,225,4.0,11.0,52,0.00,,,0.00,meteohub,2013-03-02 05:12:00,
2013-03-02 00:18:00,56.3,38.8,30.06,South,180,6.0,13.0,52,0.00,,,0.00,meteohub,2013-03-02 05:18:00,
2013-03-02 00:23:00,56.3,37.4,30.06,South,180,10.0,13.0,49,0.00,,,0.00,meteohub,2013-03-02 05:23:00,
2013-03-02 00:28:00,56.1,37.8,30.06,South,180,12.0,12.0,50,0.00,,,0.00,meteohub,2013-03-02 05:28:00,
2013-03-02 00:33:00,56.1,38.7,30.06,South,180,4.0,12.0,52,0.00,,,0.00,meteohub,2013-03-02 05:33:00,
2013-03-02 00:38:00,56.1,39.2,30.06,SW,225,8.0,12.0,53,0.00,,,0.00,meteohub,2013-03-02 05:38:00,
2013-03-02 00:43:00,55.9,37.6,30.06,South,180,9.0,12.0,50,0.00,,,0.00,meteohub,2013-03-02 05:43:00,
2013-03-02 00:48:00,55.9,38.1,30.06,West,270,7.0,11.0,51,0.00,,,0.00,meteohub,2013-03-02 05:48:00,
2013-03-02 00:53:00,55.9,38.5,30.06,SE,135,6.0,12.0,52,0.00,,,0.00,meteohub,2013-03-02 05:53:00,
2013-03-02 00:58:00,55.8,38.8,30.06,SW,225,4.0,12.0,53,0.00,,,0.00,meteohub,2013-03-02 05:58:00,
2013-03-02 01:03:00,55.8,38.5,30.06,South,180,7.0,11.0,52,0.00,,,0.00,meteohub,2013-03-02 06:03:00,
2013-03-02 01:09:00,55.8,38.5,30.06,SW,225,8.0,10.0,52,0.00,,,0.00,meteohub,2013-03-02 06:09:00,
2013-03-02 01:14:00,55.6,38.7,30.06,NW,315,8.0,11.0,53,0.00,,,0.00,meteohub,2013-03-02 06:14:00,
2013-03-02 01:19:00,55.4,38.5,30.06,South,180,8.0,11.0,53,0.00,,,0.00,meteohub,2013-03-02 06:19:00,
2013-03-02 01:24:00,55.4,38.1,30.06,SW,225,10.0,14.0,52,0.00,,,0.00,meteohub,2013-03-02 06:24:00,
2013-03-02 01:29:00,55.4,38.5,30.06,SW,225,5.0,14.0,53,0.00,,,0.00,meteohub,2013-03-02 06:29:00,
2013-03-02 01:34:00,55.4,39.0,30.06,SW,225,5.0,13.0,54,0.00,,,0.00,meteohub,2013-03-02 06:34:00,
2013-03-02 01:39:00,55.2,37.9,30.06,SW,225,8.0,13.0,52,0.00,,,0.00,meteohub,2013-03-02 06:39:00,
2013-03-02 01:44:00,55.2,38.8,30.06,SW,225,8.0,13.0,54,0.00,,,0.00,meteohub,2013-03-02 06:44:00,
2013-03-02 01:49:00,55.2,39.4,30.06,SW,225,6.0,12.0,55,0.00,,,0.00,meteohub,2013-03-02 06:49:00,
2013-03-02 01:54:00,55.2,38.8,30.06,SW,225,9.0,14.0,54,0.00,,,0.00,meteohub,2013-03-02 06:54:00,
2013-03-02 01:59:00,55.2,39.4,30.06,NW,315,10.0,14.0,55,0.00,,,0.00,meteohub,2013-03-02 06:59:00,
2013-03-02 02:04:00,55.2,39.4,30.06,South,180,8.0,14.0,55,0.00,,,0.00,meteohub,2013-03-02 07:04:00,
2013-03-02 02:10:00,55.2,38.8,30.06,NW,315,7.0,14.0,54,0.00,,,0.00,meteohub,2013-03-02 07:10:00,
2013-03-02 02:15:00,55.2,39.4,30.06,SW,225,8.0,14.0,55,0.00,,,0.00,meteohub,2013-03-02 07:15:00,
2013-03-02 02:20:00,55.2,38.8,30.06,West,270,11.0,17.0,54,0.00,,,0.00,meteohub,2013-03-02 07:20:00,
2013-03-02 02:25:00,55.2,38.3,30.06,South,180,11.0,17.0,53,0.00,,,0.00,meteohub,2013-03-02 07:25:00,
2013-03-02 02:30:00,55.2,38.8,30.06,SW,225,8.0,17.0,54,0.00,,,0.00,meteohub,2013-03-02 07:30:00,
2013-03-02 02:35:00,55.2,39.4,30.06,South,180,4.0,12.0,55,0.00,,,0.00,meteohub,2013-03-02 07:35:00,
2013-03-02 02:40:00,55.2,38.3,30.06,West,270,8.0,13.0,53,0.00,,,0.00,meteohub,2013-03-02 07:40:00,
2013-03-02 02:45:00,55.2,38.8,30.05,SW,225,14.0,16.0,54,0.00,,,0.00,meteohub,2013-03-02 07:45:00,
2013-03-02 02:50:00,55.2,38.3,30.05,West,270,11.0,16.0,53,0.00,,,0.00,meteohub,2013-03-02 07:50:00,
2013-03-02 02:55:00,55.2,38.3,30.05,South,180,6.0,16.0,53,0.00,,,0.00,meteohub,2013-03-02 07:55:00,
2013-03-02 03:01:00,55.2,38.8,30.05,SW,225,8.0,15.0,54,0.00,,,0.00,meteohub,2013-03-02 08:01:00,
2013-03-02 03:06:00,55.2,38.8,30.05,SW,225,8.0,13.0,54,0.00,,,0.00,meteohub,2013-03-02 08:06:00,
2013-03-02 03:11:00,55.2,39.4,30.05,NW,315,4.0,8.0,55,0.00,,,0.00,meteohub,2013-03-02 08:11:00,
2013-03-02 03:16:00,55.2,38.8,30.05,NW,315,4.0,18.0,54,0.00,,,0.00,meteohub,2013-03-02 08:16:00,
2013-03-02 03:21:00,55.2,38.8,30.06,SW,225,8.0,18.0,54,0.00,,,0.00,meteohub,2013-03-02 08:21:00,
2013-03-02 03:26:00,55.2,37.9,30.06,SW,225,11.0,18.0,52,0.00,,,0.00,meteohub,2013-03-02 08:26:00,
2013-03-02 03:31:00,55.2,37.9,30.05,West,270,8.0,15.0,52,0.00,,,0.00,meteohub,2013-03-02 08:31:00,
2013-03-02 03:36:00,55.2,37.4,30.05,SW,225,7.0,14.0,51,0.00,,,0.00,meteohub,2013-03-02 08:36:00,
2013-03-02 03:42:00,55.0,37.2,30.05,SW,225,4.0,14.0,51,0.00,,,0.00,meteohub,2013-03-02 08:42:00,
2013-03-02 03:47:00,55.0,37.2,30.05,SW,225,10.0,14.0,51,0.00,,,0.00,meteohub,2013-03-02 08:47:00,
2013-03-02 03:52:00,54.9,37.0,30.05,NW,315,11.0,13.0,51,0.00,,,0.00,meteohub,2013-03-02 08:52:00,
2013-03-02 03:57:00,54.7,36.3,30.05,SW,225,13.0,13.0,50,0.00,,,0.00,meteohub,2013-03-02 08:57:00,
2013-03-02 04:02:00,54.7,36.3,30.04,SW,225,7.0,13.0,50,0.00,,,0.00,meteohub,2013-03-02 09:02:00,
2013-03-02 04:07:00,54.7,36.3,30.05,SW,225,7.0,13.0,50,0.00,,,0.00,meteohub,2013-03-02 09:07:00,
2013-03-02 04:12:00,54.7,37.4,30.04,SW,225,7.0,13.0,52,0.00,,,0.00,meteohub,2013-03-02 09:12:00,
2013-03-02 04:17:00,54.7,37.9,30.04,South,180,5.0,11.0,53,0.00,,,0.00,meteohub,2013-03-02 09:17:00,
2013-03-02 04:22:00,54.7,37.9,30.05,SW,225,5.0,11.0,53,0.00,,,0.00,meteohub,2013-03-02 09:22:00,
2013-03-02 04:27:00,54.7,38.3,30.04,South,180,4.0,11.0,54,0.00,,,0.00,meteohub,2013-03-02 09:27:00,
2013-03-02 04:32:00,54.7,38.3,30.04,West,270,4.0,7.0,54,0.00,,,0.00,meteohub,2013-03-02 09:32:00,
2013-03-02 04:37:00,54.7,37.9,30.04,West,270,2.0,7.0,53,0.00,,,0.00,meteohub,2013-03-02 09:37:00,
2013-03-02 04:42:00,54.5,37.8,30.04,SW,225,4.0,7.0,53,0.00,,,0.00,meteohub,2013-03-02 09:42:00,
2013-03-02 04:47:00,54.5,38.1,30.04,West,270,2.0,7.0,54,0.00,,,0.00,meteohub,2013-03-02 09:47:00,
2013-03-02 04:52:00,54.3,38.5,30.04,East,90,1.0,5.0,55,0.00,,,0.00,meteohub,2013-03-02 09:52:00,
2013-03-02 04:57:00,54.0,38.7,30.03,North,0,2.0,4.0,56,0.00,,,0.00,meteohub,2013-03-02 09:57:00,
2013-03-02 05:02:00,53.8,39.4,30.03,SE,135,2.0,4.0,58,0.00,,,0.00,meteohub,2013-03-02 10:02:00,
2013-03-02 05:08:00,53.8,39.4,30.04,SE,135,2.0,3.0,58,0.00,,,0.00,meteohub,2013-03-02 10:08:00,
2013-03-02 05:13:00,52.5,38.7,30.03,North,0,4.0,4.0,59,0.00,,,0.00,meteohub,2013-03-02 10:13:00,
2013-03-02 05:18:00,52.0,39.0,30.02,North,0,4.0,5.0,61,0.00,,,0.00,meteohub,2013-03-02 10:18:00,
2013-03-02 05:23:00,51.6,39.0,30.03,North,0,3.0,5.0,62,0.00,,,0.00,meteohub,2013-03-02 10:23:00,
2013-03-02 05:28:00,51.3,39.0,30.03,North,0,4.0,5.0,63,0.00,,,0.00,meteohub,2013-03-02 10:28:00,
2013-03-02 05:33:00,51.1,39.4,30.03,NW,315,2.0,5.0,64,0.00,,,0.00,meteohub,2013-03-02 10:33:00,
2013-03-02 05:38:00,50.7,39.0,30.03,West,270,2.0,5.0,64,0.00,,,0.00,meteohub,2013-03-02 10:38:00,
2013-03-02 05:43:00,50.4,39.0,30.04,West,270,2.0,4.0,65,0.00,,,0.00,meteohub,2013-03-02 10:43:00,
2013-03-02 05:48:00,50.2,40.1,30.04,West,270,2.0,3.0,68,0.00,,,0.00,meteohub,2013-03-02 10:48:00,
2013-03-02 05:54:00,50.0,39.9,30.03,North,0,2.0,3.0,68,0.00,,,0.00,meteohub,2013-03-02 10:54:00,
2013-03-02 05:59:00,49.6,39.6,30.03,West,270,2.0,3.0,68,0.00,,,0.00,meteohub,2013-03-02 10:59:00,
2013-03-02 06:04:00,49.5,39.7,30.04,West,270,2.0,3.0,69,0.00,,,0.00,meteohub,2013-03-02 11:04:00,
2013-03-02 06:09:00,49.5,39.7,30.04,West,270,2.0,3.0,69,0.00,,,0.00,meteohub,2013-03-02 11:09:00,
2013-03-02 06:14:00,48.9,39.6,30.04,NW,315,2.0,2.0,70,0.00,,,0.00,meteohub,2013-03-02 11:14:00,
2013-03-02 06:19:00,48.7,39.4,30.04,NE,45,1.0,3.0,70,0.00,,,0.00,meteohub,2013-03-02 11:19:00,
2013-03-02 06:24:00,48.6,39.6,30.04,NW,315,2.0,3.0,71,0.00,,,0.00,meteohub,2013-03-02 11:24:00,
2013-03-02 06:29:00,48.2,39.2,30.04,North,0,2.0,3.0,71,0.00,,,0.00,meteohub,2013-03-02 11:29:00,
2013-03-02 06:34:00,48.0,39.0,30.04,North,0,2.0,2.0,71,0.00,,,0.00,meteohub,2013-03-02 11:34:00,
2013-03-02 06:39:00,47.8,38.8,30.05,West,270,0.0,2.0,71,0.00,,,0.00,meteohub,2013-03-02 11:39:00,
2013-03-02 06:44:00,47.7,39.0,30.04,NW,315,2.0,2.0,72,0.00,,,0.00,meteohub,2013-03-02 11:44:00,
2013-03-02 06:49:00,47.7,39.0,30.05,North,0,2.0,3.0,72,0.00,,,0.00,meteohub,2013-03-02 11:49:00,
2013-03-02 06:54:00,47.5,38.8,30.05,North,0,3.0,3.0,72,0.00,,,0.00,meteohub,2013-03-02 11:54:00,
2013-03-02 07:00:00,47.7,39.0,30.04,NE,45,1.0,3.0,72,0.00,,,0.00,meteohub,2013-03-02 12:00:00,
2013-03-02 07:05:00,47.8,39.2,30.05,NE,45,2.0,3.0,72,0.00,,,0.00,meteohub,2013-03-02 12:05:00,
2013-03-02 07:10:00,48.2,39.2,30.05,North,0,2.0,3.0,71,0.00,,,0.00,meteohub,2013-03-02 12:10:00,
2013-03-02 07:15:00,48.6,38.8,30.05,NE,45,2.0,4.0,69,0.00,,,0.00,meteohub,2013-03-02 12:15:00,
2013-03-02 07:20:00,49.8,38.5,30.06,NW,315,3.0,4.0,65,0.00,,,0.00,meteohub,2013-03-02 12:20:00,
2013-03-02 07:25:00,50.4,38.3,30.06,West,270,0.0,4.0,63,0.00,,,0.00,meteohub,2013-03-02 12:25:00,
2013-03-02 07:30:00,50.2,38.1,30.07,West,270,2.0,3.0,63,0.00,,,0.00,meteohub,2013-03-02 12:30:00,
2013-03-02 07:35:00,49.6,38.3,30.08,NW,315,2.0,3.0,65,0.00,,,0.00,meteohub,2013-03-02 12:35:00,
2013-03-02 07:41:00,49.3,38.5,30.08,SW,225,2.0,4.0,66,0.00,,,0.00,meteohub,2013-03-02 12:41:00,
2013-03-02 07:46:00,49.1,39.0,30.08,NW,315,2.0,4.0,68,0.00,,,0.00,meteohub,2013-03-02 12:46:00,
2013-03-02 07:51:00,48.9,39.2,30.09,North,0,2.0,4.0,69,0.00,,,0.00,meteohub,2013-03-02 12:51:00,
2013-03-02 07:56:00,48.7,39.7,30.08,West,270,1.0,2.0,71,0.00,,,0.00,meteohub,2013-03-02 12:56:00,
2013-03-02 08:01:00,48.4,40.1,30.08,NW,315,2.0,2.0,73,0.00,,,0.00,meteohub,2013-03-02 13:01:00,
2013-03-02 08:06:00,48.2,39.9,30.08,NE,45,2.0,2.0,73,0.00,,,0.00,meteohub,2013-03-02 13:06:00,
2013-03-02 08:11:00,48.2,40.3,30.08,North,0,2.0,2.0,74,0.00,,,0.00,meteohub,2013-03-02 13:11:00,
2013-03-02 08:16:00,48.0,39.4,30.08,NW,315,2.0,3.0,72,0.00,,,0.00,meteohub,2013-03-02 13:16:00,
2013-03-02 08:22:00,48.0,40.1,30.09,NW,315,2.0,3.0,74,0.00,,,0.00,meteohub,2013-03-02 13:22:00,
2013-03-02 08:27:00,48.2,40.3,30.09,NE,45,0.0,3.0,74,0.00,,,0.00,meteohub,2013-03-02 13:27:00,
2013-03-02 08:32:00,48.6,40.3,30.08,North,0,2.0,2.0,73,0.00,,,0.00,meteohub,2013-03-02 13:32:00,
2013-03-02 08:37:00,49.1,40.8,30.09,West,270,3.0,3.0,73,0.00,,,0.00,meteohub,2013-03-02 13:37:00,
2013-03-02 08:42:00,49.5,39.7,30.09,North,0,3.0,3.0,69,0.00,,,0.00,meteohub,2013-03-02 13:42:00,
2013-03-02 08:47:00,49.6,39.2,30.09,North,0,3.0,4.0,67,0.00,,,0.00,meteohub,2013-03-02 13:47:00,
2013-03-02 08:52:00,50.4,39.0,30.09,NW,315,2.0,4.0,65,0.00,,,0.00,meteohub,2013-03-02 13:52:00,
2013-03-02 08:57:00,51.8,38.3,30.08,NW,315,3.0,4.0,60,0.00,,,0.00,meteohub,2013-03-02 13:57:00,
2013-03-02 09:02:00,53.4,37.2,30.09,East,90,4.0,6.0,54,0.00,,,0.00,meteohub,2013-03-02 14:02:00,
2013-03-02 09:07:00,53.2,34.5,30.09,NW,315,4.0,6.0,49,0.00,,,0.00,meteohub,2013-03-02 14:07:00,
2013-03-02 09:12:00,53.4,36.3,30.09,NW,315,5.0,6.0,52,0.00,,,0.00,meteohub,2013-03-02 14:12:00,
2013-03-02 09:17:00,54.7,36.9,30.09,NW,315,4.0,6.0,51,0.00,,,0.00,meteohub,2013-03-02 14:17:00,
2013-03-02 09:22:00,55.9,36.5,30.09,West,270,4.0,6.0,48,0.00,,,0.00,meteohub,2013-03-02 14:22:00,
2013-03-02 09:27:00,55.8,35.2,30.09,SW,225,7.0,7.0,46,0.00,,,0.00,meteohub,2013-03-02 14:27:00,
2013-03-02 09:32:00,54.5,35.2,30.10,West,270,4.0,8.0,48,0.00,,,0.00,meteohub,2013-03-02 14:32:00,
2013-03-02 09:37:00,52.5,34.9,30.10,South,180,5.0,8.0,51,0.00,,,0.00,meteohub,2013-03-02 14:37:00,
2013-03-02 09:42:00,52.3,35.2,30.10,SW,225,5.0,10.0,52,0.00,,,0.00,meteohub,2013-03-02 14:42:00,
2013-03-02 09:47:00,52.9,35.8,30.10,SW,225,4.0,10.0,52,0.00,,,0.00,meteohub,2013-03-02 14:47:00,
2013-03-02 09:52:00,52.9,35.8,30.10,SW,225,4.0,10.0,52,0.00,,,0.00,meteohub,2013-03-02 14:52:00,
2013-03-02 09:57:00,55.6,38.7,30.10,West,270,11.0,11.0,53,0.00,,,0.00,meteohub,2013-03-02 14:57:00,
2013-03-02 10:02:00,55.2,39.4,30.09,SW,225,10.0,11.0,55,0.00,,,0.00,meteohub,2013-03-02 15:02:00,
2013-03-02 10:07:00,55.2,39.4,30.10,SW,225,10.0,11.0,55,0.00,,,0.00,meteohub,2013-03-02 15:07:00,
2013-03-02 10:12:00,53.4,39.9,30.11,NW,315,7.0,11.0,60,0.00,,,0.00,meteohub,2013-03-02 15:12:00,
2013-03-02 10:17:00,52.9,41.4,30.10,South,180,10.0,10.0,65,0.00,,,0.00,meteohub,2013-03-02 15:17:00,
2013-03-02 10:22:00,52.7,42.1,30.11,NNW,338,6.0,10.0,67,0.00,,,0.00,meteohub,2013-03-02 15:22:00,
2013-03-02 10:27:00,52.7,42.4,30.11,SW,225,8.0,10.0,68,0.00,,,0.00,meteohub,2013-03-02 15:27:00,
2013-03-02 10:32:00,53.1,42.4,30.11,SW,225,17.0,17.0,67,0.00,,,0.00,meteohub,2013-03-02 15:32:00,
2013-03-02 10:37:00,53.6,42.1,30.12,SW,225,8.0,18.0,65,0.00,,,0.00,meteohub,2013-03-02 15:37:00,
2013-03-02 10:42:00,53.8,42.3,30.12,West,270,6.0,18.0,65,0.00,,,0.00,meteohub,2013-03-02 15:42:00,
2013-03-02 10:47:00,54.3,42.1,30.12,South,180,14.0,18.0,63,0.00,,,0.00,meteohub,2013-03-02 15:47:00,
2013-03-02 10:52:00,54.3,41.5,30.12,SE,135,17.0,18.0,62,0.00,,,0.00,meteohub,2013-03-02 15:52:00,
2013-03-02 10:57:00,54.3,42.1,30.13,South,180,8.0,18.0,63,0.00,,,0.00,meteohub,2013-03-02 15:57:00,
2013-03-02 11:02:00,55.9,42.3,30.13,SW,225,15.0,18.0,60,0.00,,,0.00,meteohub,2013-03-02 16:02:00,
2013-03-02 11:07:00,55.9,42.3,30.13,SW,225,15.0,17.0,60,0.00,,,0.00,meteohub,2013-03-02 16:07:00,
2013-03-02 11:12:00,58.5,38.3,30.12,SW,225,17.0,17.0,47,0.00,,,0.00,meteohub,2013-03-02 16:12:00,
2013-03-02 11:17:00,58.6,37.9,30.12,East,90,15.0,19.0,46,0.00,,,0.00,meteohub,2013-03-02 16:17:00,
2013-03-02 11:22:00,59.5,39.4,30.12,NW,315,13.0,19.0,47,0.00,,,0.00,meteohub,2013-03-02 16:22:00,
2013-03-02 11:27:00,59.4,38.7,30.12,SW,225,15.0,19.0,46,0.00,,,0.00,meteohub,2013-03-02 16:27:00,
2013-03-02 11:32:00,57.9,38.3,30.12,SW,225,8.0,17.0,48,0.00,,,0.00,meteohub,2013-03-02 16:32:00,
2013-03-02 11:37:00,59.0,38.3,30.12,SW,225,11.0,17.0,46,0.00,,,0.00,meteohub,2013-03-02 16:37:00,
2013-03-02 11:42:00,58.5,37.2,30.12,SW,225,12.0,18.0,45,0.00,,,0.00,meteohub,2013-03-02 16:42:00,
2013-03-02 11:47:00,57.6,37.9,30.12,South,180,6.0,18.0,48,0.00,,,0.00,meteohub,2013-03-02 16:47:00,
2013-03-02 11:52:00,59.7,37.2,30.11,South,180,11.0,17.0,43,0.00,,,0.00,meteohub,2013-03-02 16:52:00,
2013-03-02 11:57:00,59.2,37.9,30.11,SW,225,14.0,17.0,45,0.00,,,0.00,meteohub,2013-03-02 16:57:00,
2013-03-02 12:02:00,57.9,37.8,30.11,South,180,11.0,19.0,47,0.00,,,0.00,meteohub,2013-03-02 17:02:00,
2013-03-02 12:07:00,57.9,37.8,30.12,South,180,11.0,19.0,47,0.00,,,0.00,meteohub,2013-03-02 17:07:00,
2013-03-02 12:12:00,57.4,38.8,30.11,SW,225,15.0,19.0,50,0.00,,,0.00,meteohub,2013-03-02 17:12:00,
2013-03-02 12:17:00,58.8,40.8,30.11,South,180,11.0,18.0,51,0.00,,,0.00,meteohub,2013-03-02 17:17:00,
2013-03-02 12:22:00,59.7,40.5,30.11,South,180,11.0,18.0,49,0.00,,,0.00,meteohub,2013-03-02 17:22:00,
2013-03-02 12:27:00,59.7,39.9,30.10,South,180,10.0,18.0,48,0.00,,,0.00,meteohub,2013-03-02 17:27:00,
2013-03-02 12:32:00,59.5,39.9,30.10,West,270,15.0,15.0,48,0.00,,,0.00,meteohub,2013-03-02 17:32:00,
2013-03-02 12:37:00,58.5,38.8,30.10,South,180,14.0,15.0,48,0.00,,,0.00,meteohub,2013-03-02 17:37:00,
2013-03-02 12:42:00,57.6,39.0,30.10,SW,225,13.0,15.0,50,0.00,,,0.00,meteohub,2013-03-02 17:42:00,
2013-03-02 12:47:00,57.4,38.8,30.10,WNW,293,17.0,17.0,50,0.00,,,0.00,meteohub,2013-03-02 17:47:00,
2013-03-02 12:52:00,57.6,40.6,30.09,South,180,8.0,17.0,53,0.00,,,0.00,meteohub,2013-03-02 17:52:00,
2013-03-02 12:57:00,57.4,38.3,30.10,SW,225,14.0,17.0,49,0.00,,,0.00,meteohub,2013-03-02 17:57:00,
2013-03-02 13:02:00,56.8,39.4,30.10,NW,315,12.0,18.0,52,0.00,,,0.00,meteohub,2013-03-02 18:02:00,
2013-03-02 13:07:00,56.8,39.4,30.09,NW,315,12.0,18.0,52,0.00,,,0.00,meteohub,2013-03-02 18:07:00,
2013-03-02 13:12:00,57.4,40.8,30.09,West,270,12.0,18.0,54,0.00,,,0.00,meteohub,2013-03-02 18:12:00,
2013-03-02 13:17:00,57.9,40.5,30.08,South,180,10.0,16.0,52,0.00,,,0.00,meteohub,2013-03-02 18:17:00,
2013-03-02 13:22:00,58.3,40.3,30.08,West,270,9.0,16.0,51,0.00,,,0.00,meteohub,2013-03-02 18:22:00,
2013-03-02 13:27:00,58.8,38.7,30.08,South,180,17.0,17.0,47,0.00,,,0.00,meteohub,2013-03-02 18:27:00,
2013-03-02 13:32:00,59.9,40.1,30.07,SW,225,15.0,18.0,48,0.00,,,0.00,meteohub,2013-03-02 18:32:00,
2013-03-02 13:37:00,60.1,40.3,30.07,South,180,9.0,18.0,48,0.00,,,0.00,meteohub,2013-03-02 18:37:00,
2013-03-02 13:42:00,58.6,39.0,30.07,South,180,15.0,18.0,48,0.00,,,0.00,meteohub,2013-03-02 18:42:00,
2013-03-02 13:47:00,57.7,39.2,30.06,South,180,8.0,16.0,50,0.00,,,0.00,meteohub,2013-03-02 18:47:00,
2013-03-02 13:52:00,58.1,39.0,30.06,SW,225,15.0,16.0,49,0.00,,,0.00,meteohub,2013-03-02 18:52:00,
2013-03-02 13:57:00,59.4,40.6,30.06,SW,225,8.0,17.0,50,0.00,,,0.00,meteohub,2013-03-02 18:57:00,
2013-03-02 14:02:00,59.4,39.2,30.06,SE,135,16.0,19.0,47,0.00,,,0.00,meteohub,2013-03-02 19:02:00,
2013-03-02 14:07:00,59.4,39.2,30.06,SE,135,16.0,19.0,47,0.00,,,0.00,meteohub,2013-03-02 19:07:00,
2013-03-02 14:12:00,58.6,37.9,30.06,South,180,12.0,16.0,46,0.00,,,0.00,meteohub,2013-03-02 19:12:00,
2013-03-02 14:17:00,59.0,39.4,30.06,South,180,16.0,16.0,48,0.00,,,0.00,meteohub,2013-03-02 19:17:00,
2013-03-02 14:22:00,58.3,38.7,30.05,SE,135,11.0,18.0,48,0.00,,,0.00,meteohub,2013-03-02 19:22:00,
2013-03-02 14:27:00,59.0,39.9,30.06,SW,225,7.0,18.0,49,0.00,,,0.00,meteohub,2013-03-02 19:27:00,
2013-03-02 14:32:00,59.7,38.3,30.05,SW,225,9.0,18.0,45,0.00,,,0.00,meteohub,2013-03-02 19:32:00,
2013-03-02 14:37:00,59.7,37.8,30.04,SW,225,16.0,21.0,44,0.00,,,0.00,meteohub,2013-03-02 19:37:00,
2013-03-02 14:42:00,58.1,37.9,30.04,South,180,11.0,21.0,47,0.00,,,0.00,meteohub,2013-03-02 19:42:00,
2013-03-02 14:47:00,59.2,37.2,30.04,South,180,17.0,20.0,44,0.00,,,0.00,meteohub,2013-03-02 19:47:00,
2013-03-02 14:52:00,59.2,39.0,30.04,SW,225,11.0,20.0,47,0.00,,,0.00,meteohub,2013-03-02 19:52:00,
2013-03-02 14:57:00,58.6,37.9,30.04,SE,135,10.0,17.0,46,0.00,,,0.00,meteohub,2013-03-02 19:57:00,
2013-03-02 15:03:00,58.3,37.6,30.04,SW,225,12.0,17.0,46,0.00,,,0.00,meteohub,2013-03-02 20:03:00,
2013-03-02 15:08:00,58.3,37.6,30.05,SW,225,12.0,17.0,46,0.00,,,0.00,meteohub,2013-03-02 20:08:00,
2013-03-02 15:13:00,59.0,37.8,30.04,South,180,11.0,16.0,45,0.00,,,0.00,meteohub,2013-03-02 20:13:00,
2013-03-02 15:18:00,59.5,37.0,30.04,South,180,8.0,12.0,43,0.00,,,0.00,meteohub,2013-03-02 20:18:00,
2013-03-02 15:23:00,59.5,37.0,30.04,SW,225,9.0,12.0,43,0.00,,,0.00,meteohub,2013-03-02 20:23:00,
2013-03-02 15:28:00,59.2,36.7,30.04,SW,225,16.0,17.0,43,0.00,,,0.00,meteohub,2013-03-02 20:28:00,
2013-03-02 15:33:00,57.2,37.8,30.05,SW,225,12.0,17.0,48,0.00,,,0.00,meteohub,2013-03-02 20:33:00,
2013-03-02 15:39:00,57.9,37.2,30.04,South,180,13.0,16.0,46,0.00,,,0.00,meteohub,2013-03-02 20:39:00,
2013-03-02 15:44:00,58.1,38.5,30.04,South,180,9.0,16.0,48,0.00,,,0.00,meteohub,2013-03-02 20:44:00,
2013-03-02 15:49:00,58.6,37.9,30.04,NNW,338,10.0,20.0,46,0.00,,,0.00,meteohub,2013-03-02 20:49:00,
2013-03-02 15:54:00,57.9,37.2,30.04,South,180,12.0,20.0,46,0.00,,,0.00,meteohub,2013-03-02 20:54:00,
2013-03-02 15:59:00,57.9,38.3,30.04,SW,225,10.0,20.0,48,0.00,,,0.00,meteohub,2013-03-02 20:59:00,
2013-03-02 16:04:00,58.6,38.5,30.04,South,180,13.0,18.0,47,0.00,,,0.00,meteohub,2013-03-02 21:04:00,
2013-03-02 16:09:00,57.2,37.8,30.04,SE,135,15.0,18.0,48,0.00,,,0.00,meteohub,2013-03-02 21:09:00,
2013-03-02 16:14:00,56.3,37.9,30.04,SW,225,8.0,15.0,50,0.00,,,0.00,meteohub,2013-03-02 21:14:00,
2013-03-02 16:19:00,55.8,38.8,30.03,SW,225,14.0,15.0,53,0.00,,,0.00,meteohub,2013-03-02 21:19:00,
2013-03-02 16:25:00,55.8,39.4,30.04,South,180,12.0,15.0,54,0.00,,,0.00,meteohub,2013-03-02 21:25:00,
2013-03-02 16:30:00,57.0,39.0,30.04,South,180,13.0,14.0,51,0.00,,,0.00,meteohub,2013-03-02 21:30:00,
2013-03-02 16:35:00,56.5,38.7,30.03,South,180,15.0,17.0,51,0.00,,,0.00,meteohub,2013-03-02 21:35:00,
2013-03-02 16:40:00,56.3,38.8,30.03,SW,225,8.0,17.0,52,0.00,,,0.00,meteohub,2013-03-02 21:40:00,
2013-03-02 16:45:00,57.0,38.1,30.02,West,270,15.0,17.0,49,0.00,,,0.00,meteohub,2013-03-02 21:45:00,
2013-03-02 16:50:00,57.0,37.6,30.03,SW,225,10.0,16.0,48,0.00,,,0.00,meteohub,2013-03-02 21:50:00,
2013-03-02 16:55:00,57.2,38.3,30.03,South,180,6.0,16.0,49,0.00,,,0.00,meteohub,2013-03-02 21:55:00,
2013-03-02 17:00:00,56.7,39.2,30.03,SW,225,5.0,16.0,52,0.00,,,0.00,meteohub,2013-03-02 22:00:00,
2013-03-02 17:05:00,56.1,38.3,30.04,SW,225,11.0,16.0,51,0.00,,,0.00,meteohub,2013-03-02 22:05:00,
2013-03-02 17:10:00,55.6,38.7,30.04,West,270,8.0,12.0,53,0.00,,,0.00,meteohub,2013-03-02 22:10:00,
2013-03-02 17:15:00,55.0,39.2,30.04,West,270,10.0,13.0,55,0.00,,,0.00,meteohub,2013-03-02 22:15:00,
2013-03-02 17:21:00,54.9,38.5,30.03,SW,225,10.0,13.0,54,0.00,,,0.00,meteohub,2013-03-02 22:21:00,
2013-03-02 17:26:00,54.9,39.0,30.04,SW,225,4.0,13.0,55,0.00,,,0.00,meteohub,2013-03-02 22:26:00,
2013-03-02 17:31:00,54.7,38.8,30.04,SW,225,7.0,13.0,55,0.00,,,0.00,meteohub,2013-03-02 22:31:00,
2013-03-02 17:36:00,54.7,39.4,30.04,West,270,8.0,13.0,56,0.00,,,0.00,meteohub,2013-03-02 22:36:00,
2013-03-02 17:41:00,54.9,38.5,30.04,South,180,7.0,15.0,54,0.00,,,0.00,meteohub,2013-03-02 22:41:00,
2013-03-02 17:46:00,54.9,38.5,30.04,South,180,9.0,15.0,54,0.00,,,0.00,meteohub,2013-03-02 22:46:00,
2013-03-02 17:51:00,55.0,39.2,30.04,SW,225,15.0,15.0,55,0.00,,,0.00,meteohub,2013-03-02 22:51:00,
2013-03-02 17:56:00,54.9,39.0,30.04,SW,225,10.0,16.0,55,0.00,,,0.00,meteohub,2013-03-02 22:56:00,
2013-03-02 18:01:00,54.7,38.8,30.04,SW,225,14.0,16.0,55,0.00,,,0.00,meteohub,2013-03-02 23:01:00,
2013-03-02 18:06:00,54.7,38.8,30.04,SE,135,6.0,16.0,55,0.00,,,0.00,meteohub,2013-03-02 23:06:00,
2013-03-02 18:12:00,54.7,38.8,30.04,South,180,10.0,15.0,55,0.00,,,0.00,meteohub,2013-03-02 23:12:00,
2013-03-02 18:17:00,54.7,38.3,30.04,SW,225,11.0,15.0,54,0.00,,,0.00,meteohub,2013-03-02 23:17:00,
2013-03-02 18:22:00,54.3,38.5,30.04,South,180,9.0,15.0,55,0.00,,,0.00,meteohub,2013-03-02 23:22:00,
2013-03-02 18:27:00,54.3,39.0,30.04,SE,135,11.0,17.0,56,0.00,,,0.00,meteohub,2013-03-02 23:27:00,
2013-03-02 18:32:00,54.3,37.6,30.04,South,180,10.0,17.0,53,0.00,,,0.00,meteohub,2013-03-02 23:32:00,
2013-03-02 18:37:00,54.3,37.6,30.04,South,180,10.0,17.0,53,0.00,,,0.00,meteohub,2013-03-02 23:37:00,
2013-03-02 18:42:00,54.3,37.6,30.04,South,180,8.0,11.0,53,0.00,,,0.00,meteohub,2013-03-02 23:42:00,
2013-03-02 18:47:00,54.3,37.9,30.04,SW,225,9.0,12.0,54,0.00,,,0.00,meteohub,2013-03-02 23:47:00,
2013-03-02 18:52:00,54.5,37.8,30.04,WSW,248,10.0,15.0,53,0.00,,,0.00,meteohub,2013-03-02 23:52:00,
2013-03-02 18:57:00,54.3,37.6,30.04,East,90,7.0,15.0,53,0.00,,,0.00,meteohub,2013-03-02 23:57:00,
2013-03-02 19:02:00,54.3,37.6,30.04,SW,225,7.0,13.0,53,0.00,,,0.00,meteohub,2013-03-03 00:02:00,
2013-03-02 19:07:00,54.3,37.6,30.04,SW,225,7.0,14.0,53,0.00,,,0.00,meteohub,2013-03-03 00:07:00,
2013-03-02 19:12:00,54.1,37.4,30.04,SE,135,10.0,14.0,53,0.00,,,0.00,meteohub,2013-03-03 00:12:00,
2013-03-02 19:17:00,54.1,36.9,30.05,South,180,9.0,13.0,52,0.00,,,0.00,meteohub,2013-03-03 00:17:00,
2013-03-02 19:22:00,54.1,36.3,30.04,South,180,8.0,17.0,51,0.00,,,0.00,meteohub,2013-03-03 00:22:00,
2013-03-02 19:27:00,54.0,36.7,30.05,SE,135,5.0,17.0,52,0.00,,,0.00,meteohub,2013-03-03 00:27:00,
2013-03-02 19:32:00,54.1,37.4,30.05,SW,225,9.0,13.0,53,0.00,,,0.00,meteohub,2013-03-03 00:32:00,
2013-03-02 19:37:00,54.3,37.6,30.05,South,180,4.0,12.0,53,0.00,,,0.00,meteohub,2013-03-03 00:37:00,
2013-03-02 19:42:00,54.1,37.9,30.05,South,180,10.0,12.0,54,0.00,,,0.00,meteohub,2013-03-03 00:42:00,
2013-03-02 19:47:00,54.3,37.0,30.05,SE,135,10.0,13.0,52,0.00,,,0.00,meteohub,2013-03-03 00:47:00,
2013-03-02 19:52:00,54.3,37.6,30.05,SW,225,9.0,15.0,53,0.00,,,0.00,meteohub,2013-03-03 00:52:00,
2013-03-02 19:57:00,54.3,37.0,30.06,South,180,7.0,15.0,52,0.00,,,0.00,meteohub,2013-03-03 00:57:00,
2013-03-02 20:02:00,54.3,36.5,30.05,South,180,11.0,16.0,51,0.00,,,0.00,meteohub,2013-03-03 01:02:00,
2013-03-02 20:07:00,54.5,35.8,30.05,SW,225,11.0,16.0,49,0.00,,,0.00,meteohub,2013-03-03 01:07:00,
2013-03-02 20:12:00,54.5,34.7,30.06,East,90,5.0,16.0,47,0.00,,,0.00,meteohub,2013-03-03 01:12:00,
2013-03-02 20:17:00,54.5,34.2,30.05,South,180,10.0,19.0,46,0.00,,,0.00,meteohub,2013-03-03 01:17:00,
2013-03-02 20:22:00,54.5,34.2,30.05,South,180,10.0,19.0,46,0.00,,,0.00,meteohub,2013-03-03 01:22:00,
2013-03-02 20:27:00,54.9,32.7,30.05,SW,225,17.0,19.0,43,0.00,,,0.00,meteohub,2013-03-03 01:27:00,
2013-03-02 20:32:00,54.9,32.7,30.06,South,180,10.0,18.0,43,0.00,,,0.00,meteohub,2013-03-03 01:32:00,
2013-03-02 20:37:00,54.9,35.1,30.05,SSE,158,12.0,18.0,47,0.00,,,0.00,meteohub,2013-03-03 01:37:00,
2013-03-02 20:42:00,54.9,35.6,30.06,SW,225,12.0,18.0,48,0.00,,,0.00,meteohub,2013-03-03 01:42:00,
2013-03-02 20:47:00,54.7,36.0,30.06,South,180,11.0,15.0,49,0.00,,,0.00,meteohub,2013-03-03 01:47:00,
2013-03-02 20:52:00,54.7,36.0,30.05,South,180,11.0,15.0,49,0.00,,,0.00,meteohub,2013-03-03 01:52:00,
2013-03-02 20:57:00,54.5,35.2,30.06,NW,315,12.0,13.0,48,0.00,,,0.00,meteohub,2013-03-03 01:57:00,
2013-03-02 21:02:00,54.5,34.7,30.05,South,180,9.0,17.0,47,0.00,,,0.00,meteohub,2013-03-03 02:02:00,
2013-03-02 21:07:00,54.5,34.7,30.05,South,180,9.0,17.0,47,0.00,,,0.00,meteohub,2013-03-03 02:07:00,
2013-03-02 21:12:00,54.5,35.2,30.05,NW,315,8.0,17.0,48,0.00,,,0.00,meteohub,2013-03-03 02:12:00,
2013-03-02 21:17:00,54.5,35.2,30.05,South,180,11.0,16.0,48,0.00,,,0.00,meteohub,2013-03-03 02:17:00,
2013-03-02 21:22:00,54.5,35.2,30.05,SW,225,12.0,17.0,48,0.00,,,0.00,meteohub,2013-03-03 02:22:00,
2013-03-02 21:27:00,54.5,35.2,30.05,South,180,9.0,17.0,48,0.00,,,0.00,meteohub,2013-03-03 02:27:00,
2013-03-02 21:32:00,54.5,35.2,30.05,SW,225,6.0,16.0,48,0.00,,,0.00,meteohub,2013-03-03 02:32:00,
2013-03-02 21:37:00,54.3,35.6,30.04,SW,225,11.0,16.0,49,0.00,,,0.00,meteohub,2013-03-03 02:37:00,
2013-03-02 21:42:00,54.1,36.3,30.04,SW,225,15.0,16.0,51,0.00,,,0.00,meteohub,2013-03-03 02:42:00,
2013-03-02 21:47:00,54.1,37.9,30.05,WNW,293,15.0,15.0,54,0.00,,,0.00,meteohub,2013-03-03 02:47:00,
2013-03-02 21:52:00,54.1,37.4,30.05,South,180,6.0,15.0,53,0.00,,,0.00,meteohub,2013-03-03 02:52:00,
2013-03-02 21:57:00,54.1,36.9,30.05,SW,225,9.0,15.0,52,0.00,,,0.00,meteohub,2013-03-03 02:57:00,
2013-03-02 22:02:00,54.1,36.9,30.05,SW,225,9.0,15.0,52,0.00,,,0.00,meteohub,2013-03-03 03:02:00,
2013-03-02 22:07:00,54.1,36.9,30.05,South,180,11.0,14.0,52,0.00,,,0.00,meteohub,2013-03-03 03:07:00,
2013-03-02 22:12:00,54.1,36.9,30.04,South,180,9.0,13.0,52,0.00,,,0.00,meteohub,2013-03-03 03:12:00,
2013-03-02 22:17:00,54.1,37.9,30.05,South,180,11.0,16.0,54,0.00,,,0.00,meteohub,2013-03-03 03:17:00,
2013-03-02 22:22:00,54.0,36.7,30.05,SE,135,15.0,16.0,52,0.00,,,0.00,meteohub,2013-03-03 03:22:00,
2013-03-02 22:27:00,54.0,36.3,30.05,SW,225,9.0,16.0,51,0.00,,,0.00,meteohub,2013-03-03 03:27:00,
2013-03-02 22:32:00,54.0,36.7,30.05,SW,225,11.0,16.0,52,0.00,,,0.00,meteohub,2013-03-03 03:32:00,
2013-03-02 22:37:00,54.0,36.7,30.05,SW,225,11.0,15.0,52,0.00,,,0.00,meteohub,2013-03-03 03:37:00,
2013-03-02 22:42:00,54.1,36.3,30.05,South,180,11.0,11.0,51,0.00,,,0.00,meteohub,2013-03-03 03:42:00,
2013-03-02 22:47:00,54.1,36.9,30.06,South,180,14.0,16.0,52,0.00,,,0.00,meteohub,2013-03-03 03:47:00,
2013-03-02 22:52:00,54.0,36.3,30.05,SW,225,9.0,16.0,51,0.00,,,0.00,meteohub,2013-03-03 03:52:00,
2013-03-02 22:57:00,53.8,36.5,30.05,South,180,11.0,16.0,52,0.00,,,0.00,meteohub,2013-03-03 03:57:00,
2013-03-02 23:02:00,53.8,36.1,30.06,SW,225,12.0,15.0,51,0.00,,,0.00,meteohub,2013-03-03 04:02:00,
2013-03-02 23:07:00,53.8,36.1,30.06,SW,225,12.0,15.0,51,0.00,,,0.00,meteohub,2013-03-03 04:07:00,
2013-03-02 23:12:00,53.8,37.9,30.06,SE,135,7.0,15.0,55,0.00,,,0.00,meteohub,2013-03-03 04:12:00,
2013-03-02 23:17:00,53.8,37.6,30.05,SW,225,11.0,15.0,54,0.00,,,0.00,meteohub,2013-03-03 04:17:00,
2013-03-02 23:22:00,53.8,37.6,30.06,South,180,8.0,15.0,54,0.00,,,0.00,meteohub,2013-03-03 04:22:00,
2013-03-02 23:27:00,53.8,37.0,30.06,SE,135,8.0,15.0,53,0.00,,,0.00,meteohub,2013-03-03 04:27:00,
2013-03-02 23:32:00,53.6,36.0,30.05,SW,225,11.0,15.0,51,0.00,,,0.00,meteohub,2013-03-03 04:32:00,
2013-03-02 23:37:00,53.6,36.0,30.05,SW,225,11.0,15.0,51,0.00,,,0.00,meteohub,2013-03-03 04:37:00,
2013-03-02 23:42:00,53.6,36.0,30.05,SW,225,6.0,15.0,51,0.00,,,0.00,meteohub,2013-03-03 04:42:00,
2013-03-02 23:47:00,53.4,35.8,30.05,South,180,9.0,15.0,51,0.00,,,0.00,meteohub,2013-03-03 04:47:00,
2013-03-02 23:52:00,53.4,35.8,30.05,South,180,8.0,12.0,51,0.00,,,0.00,meteohub,2013-03-03 04:52:00,
2013-03-02 23:57:00,53.4,35.8,30.05,South,180,5.0,11.0,51,0.00,,,0.00,meteohub,2013-03-03 04:57:00,